Location: Diebersbach
(48.5163°N, 8.0558°E)
Time: 01:12:25
(UTC+00:00)

FENGYUN 1C DEB - Pass Details

Date: 07 February 2022
Orbit: 690 x 984 km, 98.6° (Epoch: 23 May)

Event Time Altitude Azimuth Distance (km) Brightness Sun altitude
Rises 05:15:13 0° 27° (NNE) 3,459 ? -15.8°
Reaches altitude 10° 05:18:31 10° 46° (NE) 2,456 ? -15.2°
Maximum altitude 05:22:04 18° 87° (E) 1,910 ? -14.7°
Drops below altitude 10° 05:25:27 10° 129° (SE) 2,319 ? -14.1°
Sets 05:28:26 0° 149° (SSE) 3,188 ? -13.6°
